FW8718 Weather Reports


Display with metric or nautical units.
time (UTC)temp
F
wind
direction
speed
MPH
gust
MPH
rain 1hr
in
rain 24hr
in
rain mn
in
humidity
%
barometer
mb
20260906214018 85 225 4.0 15.0 0.00 0.00 0.00 34 1025.2
20260906213518 85 209 5.0 11.0 0.00 0.00 0.00 33 1025.3
20260906213043 85 189 3.0 10.0 0.00 0.00 0.00 34 1025.3
20260906212517 85 142 6.0 10.0 0.00 0.00 0.00 34 1025.5
20260906212019 85 113 2.0 9.0 0.00 0.00 0.00 36 1025.4
20260906211552 85 124 3.0 9.0 0.00 0.00 0.00 35 1025.4
20260906211019 85 232 3.0 12.0 0.00 0.00 0.00 34 1025.5
20260906210521 85 196 5.0 12.0 0.00 0.00 0.00 36 1025.5
20260906210105 84 128 2.0 10.0 0.00 0.00 0.00 37 1025.6
20260906205518 85 112 5.0 14.0 0.00 0.00 0.00 36 1025.8
20260906205017 85 229 5.0 14.0 0.00 0.00 0.00 36 1025.8
20260906204602 84 73 3.0 13.0 0.00 0.00 0.00 38 1025.7
20260906204016 84 194 4.0 12.0 0.00 0.00 0.00 39 1026.0
20260906203518 85 129 4.0 12.0 0.00 0.00 0.00 37 1025.9
20260906203053 84 221 3.0 11.0 0.00 0.00 0.00 38 1025.8
20260906202519 83 141 4.0 13.0 0.00 0.00 0.00 39 1025.9
20260906202021 83 140 6.0 13.0 0.00 0.00 0.00 38 1026.1
20260906201620 83 132 3.0 9.0 0.00 0.00 0.00 38 1026.0
20260906201020 82 198 2.0 9.0 0.00 0.00 0.00 40 1025.9
20260906200519 82 159 2.0 12.0 0.00 0.00 0.00 40 1026.1
20260906200058 82 93 5.0 12.0 0.00 0.00 0.00 40 1026.1
20260906195517 82 76 0.0 9.0 0.00 0.00 0.00 38 1026.2
20260906195017 83 190 2.0 10.0 0.00 0.00 0.00 37 1026.4
20260906194604 84 213 4.0 12.0 0.00 0.00 0.00 36 1026.5
20260906193521 83 178 5.0 15.0 0.00 0.00 0.00 36 1026.6
20260906193050 83 252 1.0 10.0 0.00 0.00 0.00 37 1026.5
20260906192517 83 83 3.0 15.0 0.00 0.00 0.00 35 1026.7
20260906192019 83 230 3.0 15.0 0.00 0.00 0.00 36 1026.7
20260906191605 83 163 3.0 11.0 0.00 0.00 0.00 36 1026.7
20260906191017 83 146 3.0 11.0 0.00 0.00 0.00 35 1026.9
20260906190519 83 121 5.0 10.0 0.00 0.00 0.00 35 1026.9
20260906190059 83 155 2.0 11.0 0.00 0.00 0.00 36 1026.9
20260906185520 83 124 4.0 11.0 0.00 0.00 0.00 37 1027.0
20260906185016 83 161 4.0 9.0 0.00 0.00 0.00 36 1027.0
20260906184559 83 227 1.0 7.0 0.00 0.00 0.00 36 1027.1
20260906183519 82 164 3.0 12.0 0.00 0.00 0.00 37 1027.4
20260906183048 81 190 3.0 9.0 0.00 0.00 0.00 38 1027.5
20260906182520 81 84 4.0 9.0 0.00 0.00 0.00 38 1027.6
20260906182021 80 192 4.0 9.0 0.00 0.00 0.00 39 1027.6
20260906181609 80 165 2.0 9.0 0.00 0.00 0.00 38 1027.7
20260906181018 81 78 1.0 11.0 0.00 0.00 0.00 38 1027.8
20260906180518 81 85 3.0 11.0 0.00 0.00 0.00 37 1027.8
20260906180051 80 113 4.0 9.0 0.00 0.00 0.00 38 1027.9
20260906175519 80 136 2.0 6.0 0.00 0.00 0.00 38 1028.1
20260906175022 80 154 2.0 5.0 0.00 0.00 0.00 39 1027.7
20260906174601 80 180 1.0 6.0 0.00 0.00 0.00 38 1028.0
20260906174017 81 197 2.0 9.0 0.00 0.00 0.00 37 1028.2
20260906173102 82 209 3.0 9.0 0.00 0.00 0.00 37 1028.1
20260906172019 81 127 3.0 9.0 0.00 0.00 0.00 37 1028.3
20260906171553 82 130 3.0 7.0 0.00 0.00 0.00 37 1028.3
20260906171018 82 94 2.0 9.0 0.00 0.00 0.00 36 1028.4
20260906170519 82 159 3.0 9.0 0.00 0.00 0.00 36 1028.4
20260906170053 82 191 1.0 6.0 0.00 0.00 0.00 37 1028.2
20260906165522 81 232 3.0 7.0 0.00 0.00 0.00 37 1028.2
20260906165019 81 243 2.0 7.0 0.00 0.00 0.00 37 1028.2
20260906164559 80 230 1.0 6.0 0.00 0.00 0.00 38 1028.1
20260906164017 80 63 1.0 6.0 0.00 0.00 0.00 38 1028.2
20260906163103 79 111 2.0 7.0 0.00 0.00 0.00 38 1028.4
20260906162019 79 119 1.0 5.0 0.00 0.00 0.00 37 1028.4
20260906161601 78 100 0.0 5.0 0.00 0.00 0.00 38 1028.2
20260906161020 78 146 2.0 6.0 0.00 0.00 0.00 39 1028.2
20260906160517 78 165 2.0 6.0 0.00 0.00 0.00 40 1028.1
20260906160056 77 82 0.0 5.0 0.00 0.00 0.00 41 1028.1
20260906154552 76 81 2.0 7.0 0.00 0.00 0.00 43 1028.0
20260906153517 75 86 3.0 9.0 0.00 0.00 0.00 41 1027.7
20260906153107 74 115 2.0 9.0 0.00 0.00 0.00 44 1027.9
20260906152517 74 92 4.0 9.0 0.00 0.00 0.00 42 1028.0
20260906152021 74 82 3.0 9.0 0.00 0.00 0.00 43 1027.9
20260906151548 74 61 3.0 6.0 0.00 0.00 0.00 44 1027.7
20260906151019 74 40 1.0 6.0 0.00 0.00 0.00 45 1027.7
20260906150516 73 9 2.0 6.0 0.00 0.00 0.00 45 1027.6
20260906150059 73 53 2.0 6.0 0.00 0.00 0.00 46 1027.4
20260906145518 72 65 1.0 6.0 0.00 0.00 0.00 47 1027.7
20260906145019 72 355 1.0 8.0 0.00 0.00 0.00 47 1027.6
20260906144557 71 59 2.0 8.0 0.00 0.00 0.00 47 1027.6
20260906143056 69 30 0.0 5.0 0.00 0.00 0.00 54 1027.4
20260906142519 68 36 1.0 5.0 0.00 0.00 0.00 53 1027.3
20260906142018 68 57 0.0 5.0 0.00 0.00 0.00 55 1027.2
20260906141548 67 53 1.0 8.0 0.00 0.00 0.00 55 1027.4
20260906141024 66 22 0.0 4.0 0.00 0.00 0.00 57 1027.2
20260906140519 65 56 1.0 3.0 0.00 0.00 0.00 58 1027.1
20260906140100 64 55 0.0 3.0 0.00 0.00 0.00 59 1027.2
20260906135517 63 55 0.0 8.0 0.00 0.00 0.00 60 1027.0
20260906135018 62 49 1.0 8.0 0.00 0.00 0.00 62 1026.9
20260906134605 61 44 0.0 6.0 0.00 0.00 0.00 62 1026.9
20260906134019 60 59 2.0 6.0 0.00 0.00 0.00 63 1026.8
20260906133100 60 51 1.0 4.0 0.00 0.00 0.00 63 1026.8
20260906132520 60 38 1.0 6.0 0.00 0.00 0.00 63 1026.7
20260906132019 59 73 2.0 5.0 0.00 0.00 0.00 63 1026.6
20260906131552 59 49 1.0 4.0 0.00 0.00 0.00 63 1026.5
20260906131017 59 39 1.0 4.0 0.00 0.00 0.00 63 1026.4
20260906130519 59 58 0.0 5.0 0.00 0.00 0.00 63 1026.4
20260906130112 59 58 2.0 5.0 0.00 0.00 0.00 62 1026.5
20260906125517 59 59 1.0 4.0 0.00 0.00 0.00 62 1026.5
20260906124557 60 55 1.0 5.0 0.00 0.00 0.00 61 1026.6
20260906124018 60 59 2.0 5.0 0.00 0.00 0.00 61 1026.6
20260906123517 60 59 2.0 4.0 0.00 0.00 0.00 60 1026.7
20260906123057 61 54 2.0 5.0 0.00 0.00 0.00 59 1026.7
20260906122023 61 60 0.0 7.0 0.00 0.00 0.00 58 1026.6
20260906121608 62 45 0.0 5.0 0.00 0.00 0.00 58 1026.6
20260906120520 62 71 1.0 7.0 0.00 0.00 0.00 58 1026.5
20260906120058 61 21 1.0 5.0 0.00 0.00 0.00 58 1026.5
20260906114604 61 93 0.0 4.0 0.00 0.00 0.00 58 1026.4
20260906113106 60 96 0.0 3.0 0.00 0.00 0.00 59 1026.2
20260906112020 60 97 0.0 4.0 0.00 0.00 0.00 59 1026.2
20260906111556 60 113 0.0 3.0 0.00 0.00 0.00 59 1026.0
20260906111017 60 117 0.0 2.0 0.00 0.00 0.00 60 1026.0
20260906110517 60 128 0.0 0.0 0.00 0.00 0.00 60 1025.9
20260906110054 60 128 0.0 0.0 0.00 0.00 0.00 60 1026.0
20260906104555 60 128 0.0 0.0 0.00 0.00 0.00 60 1026.0
20260906103104 60 128 0.0 0.0 0.00 0.00 0.00 61 1026.2
20260906102518 60 128 0.0 0.0 0.00 0.00 0.00 61 1026.2
20260906101605 60 128 0.0 0.0 0.00 0.00 0.00 60 1026.3
20260906101023 61 128 0.0 0.0 0.00 0.00 0.00 60 1026.3
20260906100521 60 128 0.0 0.0 0.00 0.00 0.00 60 1026.3
20260906100108 60 128 0.0 0.0 0.00 0.00 0.00 62 1026.3
20260906095520 60 128 0.0 0.0 0.00 0.00 0.00 62 1026.4
20260906094559 61 128 0.0 2.0 0.00 0.00 0.00 62 1026.5
20260906093105 61 128 1.0 4.0 0.00 0.00 0.00 61 1026.5
20260906092520 61 129 1.0 4.0 0.00 0.00 0.00 62 1026.5
20260906091614 61 130 1.0 4.0 0.00 0.00 0.00 61 1026.4
20260906090055 62 130 0.0 1.0 0.00 0.00 0.00 62 1026.2
20260906085019 62 130 0.0 1.0 0.00 0.00 0.00 63 1026.2
20260906084559 62 130 0.0 0.0 0.00 0.00 0.00 64 1026.4
20260906084019 62 130 0.0 0.0 0.00 0.00 0.00 64 1026.4
20260906083100 61 130 0.0 2.0 0.00 0.00 0.00 66 1026.4
20260906081610 61 130 0.0 1.0 0.00 0.00 0.00 68 1026.4
20260906080114 61 130 0.0 0.0 0.00 0.00 0.00 73 1026.4
20260906075518 61 130 0.0 1.0 0.00 0.00 0.00 73 1026.5
20260906074604 61 130 0.0 0.0 0.00 0.00 0.00 76 1026.6
20260906074019 61 130 0.0 0.0 0.00 0.00 0.00 77 1026.6
20260906073519 61 130 0.0 0.0 0.00 0.00 0.00 77 1026.7
20260906073108 61 130 0.0 0.0 0.00 0.00 0.00 75 1026.7
20260906072518 61 130 0.0 0.0 0.00 0.00 0.00 75 1026.8
20260906071614 62 130 0.0 0.0 0.00 0.00 0.00 74 1026.9
20260906070103 62 130 0.0 0.0 0.00 0.00 0.00 74 1027.0
20260906064603 62 130 0.0 2.0 0.00 0.00 0.00 74 1027.1
20260906063101 61 130 0.0 1.0 0.00 0.00 0.00 75 1026.9
20260906061553 61 130 0.0 2.0 0.00 0.00 0.00 75 1027.0
20260906061017 61 130 0.0 0.0 0.00 0.00 0.00 75 1026.9
20260906060518 61 130 0.0 1.0 0.00 0.00 0.00 76 1026.7
20260906060151 61 130 0.0 1.0 0.00 0.00 0.00 76 1026.7
20260906054613 61 130 0.0 1.0 0.00 0.00 0.00 76 1026.4
20260906053118 61 130 0.0 2.0 0.00 0.00 0.00 77 1026.5
20260906051605 60 130 0.0 1.0 0.00 0.00 0.00 78 1026.6
20260906051018 60 130 0.0 0.0 0.00 0.00 0.00 78 1026.6
20260906050119 61 130 0.0 0.0 0.00 0.00 0.00 77 1026.6
20260906043523 62 130 0.0 0.0 0.00 0.00 0.00 74 1027.0
20260906043122 63 130 0.0 0.0 0.00 0.00 0.00 73 1026.9
20260906041620 64 130 0.0 0.0 0.00 0.00 0.00 71 1027.1
20260906041019 64 130 0.0 1.0 0.00 0.00 0.00 71 1027.1
20260906040518 65 130 0.0 1.0 0.00 0.00 0.00 70 1027.2
20260906040040 65 130 0.0 0.0 0.00 0.00 0.00 69 1027.2
20260906035519 66 130 0.0 0.0 0.00 0.00 0.00 68 1027.2
20260906035017 66 130 0.0 0.0 0.00 0.00 0.00 67 1027.1
20260906034019 67 130 0.0 2.0 0.00 0.00 0.00 65 1027.3
20260906033519 68 130 0.0 2.0 0.00 0.00 0.00 65 1027.2
20260906032519 68 126 2.0 4.0 0.00 0.00 0.00 65 1026.9
20260906032022 68 136 0.0 9.0 0.00 0.00 0.00 65 1026.9
20260906031017 69 113 0.0 7.0 0.00 0.00 0.00 64 1026.9
20260906030517 69 110 0.0 7.0 0.00 0.00 0.00 64 1026.8
20260906030038 69 103 2.0 7.0 0.00 0.00 0.00 64 1026.7
20260906025521 69 147 1.0 8.0 0.00 0.00 0.00 64 1026.7
20260906025018 69 134 3.0 8.0 0.00 0.00 0.00 64 1026.5
20260906024019 70 130 0.0 6.0 0.00 0.00 0.00 63 1026.5
20260906023519 70 128 3.0 8.0 0.00 0.00 0.00 63 1026.6
20260906022519 70 91 3.0 14.0 0.00 0.00 0.00 61 1026.5
20260906022019 70 82 2.0 14.0 0.00 0.00 0.00 60 1026.4
20260906021024 68 105 2.0 4.0 0.00 0.00 0.00 42 1026.1
20260906020517 68 345 0.0 1.0 0.00 0.00 0.00 42 1025.9
20260906020048 69 345 0.0 2.0 0.00 0.00 0.00 41 1025.8
20260906015518 69 345 0.0 2.0 0.00 0.00 0.00 41 1025.8
20260906015019 70 345 0.0 4.0 0.00 0.00 0.00 40 1025.8
20260906014024 71 323 1.0 2.0 0.00 0.00 0.00 39 1025.7
20260906013520 72 323 0.0 2.0 0.00 0.00 0.00 39 1025.8
20260906013038 73 320 0.0 2.0 0.00 0.00 0.00 38 1025.6
20260906012517 73 319 0.0 3.0 0.00 0.00 0.00 37 1025.5
20260906012022 74 319 1.0 3.0 0.00 0.00 0.00 37 1025.6
20260906011017 75 315 0.0 2.0 0.00 0.00 0.00 35 1025.6
20260906010519 75 315 0.0 2.0 0.00 0.00 0.00 35 1025.6
20260906005517 76 315 0.0 4.0 0.00 0.00 0.00 35 1025.9
20260906005017 76 325 0.0 5.0 0.00 0.00 0.00 35 1026.0
20260906004018 77 318 0.0 2.0 0.00 0.00 0.00 35 1026.2
20260906003518 77 319 0.0 4.0 0.00 0.00 0.00 34 1026.2
20260906003038 77 317 0.0 4.0 0.00 0.00 0.00 34 1026.4
20260906002517 78 336 1.0 5.0 0.00 0.00 0.00 33 1026.2
20260906002020 78 265 2.0 6.0 0.00 0.00 0.00 32 1026.2
20260906001023 80 103 0.0 2.0 0.00 0.00 0.00 32 1026.1
20260906000519 80 103 0.0 2.0 0.00 0.00 0.00 31 1026.0
20260905235517 80 103 0.0 4.0 0.00 0.00 0.00 30 1026.1
20260905235024 81 92 1.0 4.0 0.00 0.00 0.00 30 1026.0
20260905234018 81 84 0.0 4.0 0.00 0.00 0.00 29 1026.1
20260905233518 81 10 0.0 3.0 0.00 0.00 0.00 29 1026.1
20260905232522 82 76 2.0 6.0 0.00 0.00 0.00 28 1025.9
20260905231021 81 81 1.0 3.0 0.00 0.00 0.00 29 1025.9
20260905230517 81 84 1.0 7.0 0.00 0.00 0.00 29 1026.0
20260905230039 80 101 2.0 7.0 0.00 0.00 0.00 31 1026.0
20260905225519 80 31 1.0 5.0 0.00 0.00 0.00 33 1025.8
20260905225016 79 360 0.0 5.0 0.00 0.00 0.00 33 1025.8
20260905224538 78 351 0.0 3.0 0.00 0.00 0.00 34 1025.8
20260905224023 77 347 0.0 3.0 0.00 0.00 0.00 35 1025.8
20260905223517 77 346 0.0 3.0 0.00 0.00 0.00 37 1025.9
20260905223038 77 313 0.0 4.0 0.00 0.00 0.00 38 1026.1
20260905222518 77 290 0.0 4.0 0.00 0.00 0.00 35 1026.4
20260905222018 77 118 0.0 2.0 0.00 0.00 0.00 35 1026.4
20260905221018 77 118 0.0 2.0 0.00 0.00 0.00 35 1026.2
20260905220518 77 118 0.0 3.0 0.00 0.00 0.00 35 1026.2
20260905215520 76 123 0.0 6.0 0.00 0.00 0.00 36 1026.4
20260905215019 76 122 1.0 7.0 0.00 0.00 0.00 35 1026.4
20260905214538 77 104 3.0 7.0 0.00 0.00 0.00 35 1026.5